When you browse on this site, cookies collect data to enhance your experience and personalize the content and advertising you see.
Visit our Privacy Policy to learn more. By continuing to use the site, you agree to this use of cookies and data.
  • En España
  • Lista de países
  • Para 7 días
  • Temperatura del agua
  • El tiempo en el mapa
  • Informadores
  • user-avatar
    Iniciar sesión

    Tiempo cada hora Dikhil

    Hoy, 20 Octubre, Domingo

    Tiempo Temperatura Precipitaciones Viento Presión Humedad
    00:00 +29°C° 0 mm 4 mps 717 mmHg 66%
    01:00 +29°C° 0 mm 3 mps 717 mmHg 68%
    02:00 +28°C° 0 mm 3 mps 716 mmHg 69%
    03:00 +28°C° 0 mm 2 mps 716 mmHg 70%
    04:00 +28°C° 0 mm 2 mps 717 mmHg 71%
    05:00 +27°C° 0 mm 2 mps 717 mmHg 71%
    06:00 +27°C° 0 mm 2 mps 717 mmHg 72%
    07:00 +29°C° 0 mm 3 mps 718 mmHg 61%
    08:00 +30°C° 0 mm 4 mps 719 mmHg 50%
    09:00 +33°C° 0 mm 5 mps 719 mmHg 39%
    10:00 +34°C° 0 mm 5 mps 719 mmHg 36%
    11:00 +35°C° 0 mm 6 mps 718 mmHg 33%
    12:00 +36°C° 0 mm 6 mps 718 mmHg 30%
    13:00 +36°C° 0 mm 6 mps 717 mmHg 30%
    14:00 +38°C° 0 mm 6 mps 717 mmHg 30%
    15:00 +38°C° 0 mm 6 mps 716 mmHg 29%
    16:00 +36°C° 0 mm 6 mps 716 mmHg 32%
    17:00 +35°C° 0 mm 6 mps 716 mmHg 35%
    18:00 +34°C° 0 mm 7 mps 716 mmHg 37%
    19:00 +33°C° 0 mm 6 mps 716 mmHg 41%
    20:00 +32°C° 0 mm 6 mps 717 mmHg 45%
    21:00 +30°C° 0 mm 5 mps 717 mmHg 48%
    22:00 +30°C° 0 mm 5 mps 717 mmHg 52%
    23:00 +29°C° 0 mm 5 mps 717 mmHg 55%

    Mañana, 21 Octubre, Lunes

    Tiempo Temperatura Precipitaciones Viento Presión Humedad
    00:00 +28°C° 0 mm 5 mps 717 mmHg 58%
    01:00 +28°C° 0 mm 5 mps 716 mmHg 62%
    02:00 +27°C° 0 mm 5 mps 716 mmHg 67%
    03:00 +27°C° 0 mm 4 mps 716 mmHg 71%
    04:00 +27°C° 0 mm 4 mps 716 mmHg 73%
    05:00 +26°C° 0 mm 4 mps 717 mmHg 76%
    06:00 +26°C° 0 mm 4 mps 717 mmHg 78%
    07:00 +27°C° 0 mm 5 mps 717 mmHg 71%
    08:00 +28°C° 0 mm 6 mps 718 mmHg 64%
    09:00 +30°C° 0 mm 7 mps 719 mmHg 58%
    10:00 +32°C° 0 mm 7 mps 718 mmHg 51%
    11:00 +34°C° 0 mm 7 mps 718 mmHg 45%
    12:00 +35°C° 0 mm 7 mps 717 mmHg 38%
    13:00 +35°C° 0 mm 7 mps 717 mmHg 37%
    14:00 +36°C° 0 mm 7 mps 716 mmHg 35%
    15:00 +36°C° 0 mm 7 mps 715 mmHg 33%
    16:00 +35°C° 0 mm 7 mps 715 mmHg 35%
    17:00 +34°C° 0 mm 7 mps 715 mmHg 37%
    18:00 +33°C° 0 mm 8 mps 715 mmHg 38%
    19:00 +32°C° 0 mm 7 mps 716 mmHg 39%
    20:00 +30°C° 0 mm 7 mps 716 mmHg 41%
    21:00 +30°C° 0 mm 7 mps 716 mmHg 42%
    22:00 +29°C° 0 mm 7 mps 716 mmHg 40%
    23:00 +29°C° 0 mm 7 mps 716 mmHg 39%

    Pasado mañana, 22 Octubre, Martes

    Tiempo Temperatura Precipitaciones Viento Presión Humedad
    00:00 +29°C° 0 mm 6 mps 716 mmHg 38%
    01:00 +28°C° 0 mm 6 mps 716 mmHg 37%
    02:00 +28°C° 0 mm 5 mps 716 mmHg 37%
    03:00 +28°C° 0 mm 5 mps 716 mmHg 37%
    04:00 +27°C° 0 mm 5 mps 716 mmHg 40%
    05:00 +27°C° 0 mm 5 mps 716 mmHg 43%
    06:00 +26°C° 0 mm 4 mps 717 mmHg 45%
    07:00 +28°C° 0 mm 5 mps 717 mmHg 40%
    08:00 +30°C° 0 mm 6 mps 718 mmHg 35%
    09:00 +32°C° 0 mm 7 mps 719 mmHg 29%
    10:00 +33°C° 0 mm 8 mps 718 mmHg 29%
    11:00 +35°C° 0 mm 8 mps 717 mmHg 28%
    12:00 +37°C° 0 mm 8 mps 717 mmHg 28%
    13:00 +37°C° 0 mm 8 mps 716 mmHg 26%
    14:00 +37°C° 0 mm 8 mps 716 mmHg 25%
    15:00 +37°C° 0 mm 8 mps 715 mmHg 24%
    16:00 +35°C° 0 mm 8 mps 715 mmHg 27%
    17:00 +34°C° 0 mm 8 mps 715 mmHg 31%
    18:00 +32°C° 0 mm 8 mps 715 mmHg 34%
    19:00 +32°C° 0 mm 7 mps 716 mmHg 36%
    20:00 +30°C° 0 mm 6 mps 716 mmHg 37%
    21:00 +29°C° 0 mm 6 mps 717 mmHg 39%
    22:00 +29°C° 0 mm 5 mps 716 mmHg 40%
    23:00 +28°C° 0 mm 4 mps 716 mmHg 41%

    23 Octubre, Miércoles

    Tiempo Temperatura Precipitaciones Viento Presión Humedad
    00:00 +28°C° 0 mm 3 mps 716 mmHg 42%
    01:00 +28°C° 0 mm 2 mps 716 mmHg 43%
    02:00 +27°C° 0 mm 2 mps 716 mmHg 44%
    03:00 +27°C° 0 mm 2 mps 716 mmHg 45%
    04:00 +26°C° 0 mm 2 mps 716 mmHg 46%
    05:00 +26°C° 0 mm 2 mps 716 mmHg 46%
    06:00 +25°C° 0 mm 2 mps 717 mmHg 47%
    07:00 +27°C° 0 mm 3 mps 717 mmHg 39%
    08:00 +30°C° 0 mm 4 mps 718 mmHg 31%
    09:00 +33°C° 0 mm 5 mps 719 mmHg 22%
    10:00 +34°C° 0 mm 6 mps 718 mmHg 22%
    11:00 +35°C° 0 mm 7 mps 718 mmHg 22%
    12:00 +36°C° 0 mm 7 mps 717 mmHg 22%
    13:00 +37°C° 0 mm 8 mps 716 mmHg 22%
    14:00 +37°C° 0 mm 8 mps 716 mmHg 22%
    15:00 +37°C° 0 mm 8 mps 715 mmHg 21%
    16:00 +35°C° 0 mm 8 mps 715 mmHg 24%
    17:00 +34°C° 0 mm 8 mps 716 mmHg 26%
    18:00 +33°C° 0 mm 8 mps 716 mmHg 29%
    19:00 +32°C° 0 mm 7 mps 716 mmHg 30%
    20:00 +30°C° 0 mm 6 mps 717 mmHg 31%
    21:00 +30°C° 0 mm 5 mps 717 mmHg 33%
    22:00 +29°C° 0 mm 4 mps 717 mmHg 37%
    23:00 +28°C° 0 mm 4 mps 717 mmHg 40%

    24 Octubre, Jueves

    Tiempo Temperatura Precipitaciones Viento Presión Humedad
    00:00 +28°C° 0 mm 4 mps 716 mmHg 44%
    01:00 +27°C° 0 mm 3 mps 716 mmHg 48%
    02:00 +27°C° 0 mm 3 mps 716 mmHg 51%
    03:00 +26°C° 0 mm 3 mps 716 mmHg 54%
    04:00 +26°C° 0 mm 3 mps 716 mmHg 57%
    05:00 +25°C° 0 mm 3 mps 716 mmHg 60%
    06:00 +25°C° 0 mm 2 mps 717 mmHg 63%
    07:00 +27°C° 0 mm 3 mps 717 mmHg 51%
    08:00 +29°C° 0 mm 4 mps 718 mmHg 39%
    09:00 +32°C° 0 mm 5 mps 718 mmHg 28%
    10:00 +34°C° 0 mm 6 mps 718 mmHg 26%
    11:00 +35°C° 0 mm 6 mps 717 mmHg 24%
    12:00 +36°C° 0 mm 7 mps 717 mmHg 22%
    13:00 +38°C° 0 mm 7 mps 716 mmHg 21%
    14:00 +38°C° 0 mm 8 mps 716 mmHg 19%
    15:00 +38°C° 0 mm 8 mps 715 mmHg 18%
    16:00 +37°C° 0 mm 8 mps 715 mmHg 20%
    17:00 +34°C° 0 mm 8 mps 716 mmHg 21%
    18:00 +33°C° 0 mm 8 mps 716 mmHg 23%
    19:00 +32°C° 0 mm 8 mps 716 mmHg 25%
    20:00 +30°C° 0 mm 7 mps 717 mmHg 28%
    21:00 +29°C° 0 mm 6 mps 717 mmHg 30%
    22:00 +29°C° 0 mm 6 mps 717 mmHg 34%
    23:00 +28°C° 0 mm 5 mps 717 mmHg 37%

    25 Octubre, Viernes

    Tiempo Temperatura Precipitaciones Viento Presión Humedad
    00:00 +27°C° 0 mm 5 mps 716 mmHg 40%
    01:00 +27°C° 0 mm 4 mps 716 mmHg 44%
    02:00 +26°C° 0 mm 4 mps 716 mmHg 48%
    03:00 +26°C° 0 mm 3 mps 716 mmHg 52%
    04:00 +25°C° 0 mm 3 mps 716 mmHg 55%
    05:00 +25°C° 0 mm 3 mps 716 mmHg 59%
    06:00 +24°C° 0 mm 3 mps 717 mmHg 62%
    07:00 +27°C° 0 mm 4 mps 717 mmHg 50%
    08:00 +29°C° 0 mm 4 mps 718 mmHg 38%
    09:00 +32°C° 0 mm 5 mps 718 mmHg 26%
    10:00 +34°C° 0 mm 5 mps 718 mmHg 23%
    11:00 +35°C° 0 mm 6 mps 717 mmHg 21%
    12:00 +38°C° 0 mm 6 mps 717 mmHg 18%
    13:00 +38°C° 0 mm 7 mps 716 mmHg 17%
    14:00 +38°C° 0 mm 7 mps 716 mmHg 17%
    15:00 +38°C° 0 mm 7 mps 715 mmHg 17%
    16:00 +36°C° 0 mm 7 mps 715 mmHg 19%
    17:00 +35°C° 0 mm 8 mps 715 mmHg 21%
    18:00 +33°C° 0 mm 8 mps 716 mmHg 24%
    19:00 +32°C° 0 mm 7 mps 716 mmHg 26%
    20:00 +30°C° 0 mm 6 mps 716 mmHg 27%
    21:00 +29°C° 0 mm 6 mps 717 mmHg 29%
    22:00 +29°C° 0 mm 5 mps 716 mmHg 33%
    23:00 +28°C° 0 mm 4 mps 716 mmHg 36%
    Mostrar más